TimeEST,TemperatureF,Dew PointF,Humidity,Sea Level PressureIn,VisibilityMPH,Wind Direction,Wind SpeedMPH,Gust SpeedMPH,PrecipitationIn,Events,Conditions,WindDirDegrees,DateUTC
12:01 AM,51.8,50.0,94,29.96,7.0,WNW,6.9,-,0.00,Rain,Light Rain,290,2012-11-12 05:01:00
12:54 AM,51.1,48.9,92,29.95,6.0,Calm,Calm,-,0.05,Rain,Light Rain,0,2012-11-12 05:54:00
1:46 AM,50.0,48.2,94,29.96,5.0,SW,4.6,-,0.11,Rain,Rain,230,2012-11-12 06:46:00
1:54 AM,50.0,48.9,96,29.95,5.0,West,3.5,-,0.13,Rain,Rain,260,2012-11-12 06:54:00
2:37 AM,44.6,42.8,93,29.98,9.0,WNW,13.8,-,0.08,Rain,Light Rain,300,2012-11-12 07:37:00
2:50 AM,44.6,42.8,93,29.99,6.0,WNW,10.4,19.6,0.10,Rain,Rain,290,2012-11-12 07:50:00
2:54 AM,44.1,42.1,93,29.99,6.0,WNW,9.2,19.6,0.11,Rain,Rain,300,2012-11-12 07:54:00
3:04 AM,42.8,42.8,100,29.99,10.0,NW,12.7,-,0.00,Rain,Light Rain,320,2012-11-12 08:04:00
3:54 AM,41.0,39.9,96,30.02,6.0,WNW,15.0,-,0.08,Rain,Rain,290,2012-11-12 08:54:00
4:16 AM,39.2,39.2,100,30.01,8.0,WNW,10.4,-,0.04,Rain,Light Rain,290,2012-11-12 09:16:00
4:28 AM,39.2,39.2,100,29.99,10.0,NNW,6.9,-,0.04,Rain,Light Rain,340,2012-11-12 09:28:00
4:54 AM,37.9,37.9,100,30.04,10.0,WNW,9.2,-,0.06,Rain,Light Rain,300,2012-11-12 09:54:00
5:01 AM,37.4,37.4,100,30.05,10.0,WNW,12.7,-,0.00,Rain,Light Rain,300,2012-11-12 10:01:00
5:42 AM,37.4,37.4,100,30.04,10.0,WNW,11.5,-,0.03,Rain,Light Rain,300,2012-11-12 10:42:00
5:54 AM,37.0,37.0,100,30.06,10.0,West,9.2,-,0.03,,Overcast,280,2012-11-12 10:54:00
6:02 AM,37.4,35.6,93,30.05,10.0,WNW,12.7,-,0.00,Rain,Light Rain,300,2012-11-12 11:02:00
6:10 AM,37.4,35.6,93,30.05,8.0,NW,12.7,-,0.01,Rain,Light Rain,310,2012-11-12 11:10:00
6:31 AM,35.6,35.6,100,30.07,8.0,West,11.5,-,0.02,,Overcast,280,2012-11-12 11:31:00
6:54 AM,34.0,34.0,100,30.08,6.0,WNW,11.5,20.7,0.02,Snow,Light Snow,290,2012-11-12 11:54:00
7:25 AM,32.0,32.0,100,30.10,2.0,WNW,12.7,-,0.00,Snow,Light Snow,290,2012-11-12 12:25:00
7:50 AM,32.0,32.0,100,30.12,5.0,West,12.7,-,0.00,,Overcast,280,2012-11-12 12:50:00
7:54 AM,32.0,32.0,100,30.13,5.0,WNW,13.8,-,0.00,,Overcast,290,2012-11-12 12:54:00
8:54 AM,32.0,30.9,96,30.16,10.0,WNW,12.7,-,N/A,,Overcast,290,2012-11-12 13:54:00
9:46 AM,30.2,28.4,93,30.19,10.0,West,18.4,25.3,N/A,,Overcast,270,2012-11-12 14:46:00
9:54 AM,32.0,27.0,82,30.19,10.0,West,16.1,25.3,N/A,,Mostly Cloudy,280,2012-11-12 14:54:00
10:54 AM,33.1,26.1,75,30.19,10.0,West,15.0,24.2,N/A,,Mostly Cloudy,280,2012-11-12 15:54:00
11:54 AM,35.1,25.0,67,30.21,10.0,West,17.3,24.2,N/A,,Scattered Clouds,270,2012-11-12 16:54:00
12:54 PM,36.0,23.0,59,30.20,10.0,WNW,18.4,25.3,N/A,,Clear,290,2012-11-12 17:54:00
1:54 PM,37.0,23.0,57,30.21,10.0,West,16.1,25.3,N/A,,Partly Cloudy,280,2012-11-12 18:54:00
2:54 PM,37.0,21.9,54,30.22,10.0,West,19.6,28.8,N/A,,Clear,280,2012-11-12 19:54:00
3:54 PM,36.0,21.0,55,30.24,10.0,West,17.3,25.3,N/A,,Scattered Clouds,280,2012-11-12 20:54:00
4:54 PM,35.1,23.0,61,30.27,10.0,West,11.5,19.6,N/A,,Partly Cloudy,280,2012-11-12 21:54:00
5:54 PM,34.0,21.9,61,30.29,10.0,West,15.0,21.9,N/A,,Partly Cloudy,270,2012-11-12 22:54:00
6:54 PM,32.0,21.9,66,30.31,10.0,West,9.2,-,N/A,,Clear,270,2012-11-12 23:54:00
7:54 PM,30.9,23.0,72,30.34,10.0,West,4.6,-,N/A,,Partly Cloudy,260,2012-11-13 00:54:00
8:54 PM,33.1,24.1,70,30.35,10.0,Calm,Calm,-,N/A,,Overcast,0,2012-11-13 01:54:00
9:54 PM,32.0,24.1,73,30.37,10.0,West,5.8,-,N/A,,Mostly Cloudy,270,2012-11-13 02:54:00
10:54 PM,33.1,25.0,72,30.38,10.0,West,5.8,-,N/A,,Overcast,260,2012-11-13 03:54:00
11:54 PM,32.0,25.0,75,30.39,10.0,West,6.9,-,N/A,,Overcast,260,2012-11-13 04:54:00